Weather History for Windom, MN

Change the Weather History Date:

Thursday, November 7, 2013

  Actual Average Record
Temperature  
Mean Temperature 30 °F -  
Max Temperature 37 °F 46 °F 71 °F (1949)
Min Temperature 23 °F 26 °F -9 °F (1991)
Degree Days  
Heating Degree Days 35    
Moisture  
Dew Point 26 °F    
Average Humidity 84    
Maximum Humidity 100    
Minimum Humidity 56    
Precipitation  
Precipitation 0.00 in - - ()
Sea Level Pressure  
Sea Level Pressure 30.22 in    
Wind  
Wind Speed 10 mph (WSW)    
Max Wind Speed 16 mph    
Max Gust Speed 20 mph    
Visibility 9 miles    
Events Fog , Snow    
Averages and records for this station are not official NWS values.
T = Trace of Precipitation, MM = Missing Value Source: NWS Daily Summary

Daily Weather History Graph

Daily Weather History Graph

Search for Another Location

Airport:

Trip Planner

Search our weather history database for the weather conditions in past years. The results will help you decide how hot, cold, wet, or windy it might be!

Date:

Astronomy

Nov. 07, 2013 Rise Set
Actual Time 7:05 AM CST 5:02 PM CST
Civil Twilight 6:34 AM CST 5:33 PM CST
Nautical Twilight 6:00 AM CST 6:07 PM CST
Astronomical Twilight 5:26 AM CST 6:41 PM CST
Moon 11:16 AM CST (11/7) 9:14 PM CST (11/7)
Length of Visible Light 10h 58m
Length of Day
9h 57m
Waxing Crescent, 23% of the Moon is Illuminated
Nov 7
Waxing Crescent
Nov 9
First Quarter
Nov 17
Full
Nov 25
Last Quarter
Dec 2
New

Hourly Weather History & Observations

Time (CST) Temp. Windchill Dew Point Humidity Pressure Visibility Wind Dir Wind Speed Gust Speed Precip Events Conditions
12:13 AM 32.0 °F 25.6 °F 28.4 °F 87% 30.17 in 10.0 mi West 6.9 mph - N/A   Overcast
12:32 AM 30.2 °F 22.6 °F 28.4 °F 93% 30.17 in 10.0 mi West 8.1 mph - N/A   Overcast
12:52 AM 30.2 °F 22.6 °F 28.4 °F 93% 30.17 in 10.0 mi West 8.1 mph - N/A   Overcast
1:12 AM 32.0 °F 24.2 °F 28.4 °F 87% 30.17 in 10.0 mi West 9.2 mph - N/A   Overcast
1:32 AM 30.2 °F 21.9 °F 28.4 °F 93% 30.17 in 10.0 mi West 9.2 mph - N/A   Overcast
1:52 AM 30.2 °F 21.9 °F 28.4 °F 93% 30.18 in 10.0 mi West 9.2 mph - N/A   Overcast
2:12 AM 30.2 °F 22.6 °F 28.4 °F 93% 30.18 in 10.0 mi WSW 8.1 mph - N/A   Overcast
2:32 AM 28.4 °F 20.4 °F 26.6 °F 93% 30.18 in 10.0 mi WSW 8.1 mph - N/A   Scattered Clouds
2:52 AM 26.6 °F 18.2 °F 24.8 °F 93% 30.18 in 10.0 mi West 8.1 mph - N/A   Clear
3:12 AM 24.8 °F 16.1 °F 24.8 °F 100% 30.18 in 10.0 mi WSW 8.1 mph - N/A   Clear
3:33 AM 24.8 °F 16.1 °F 24.8 °F 100% 30.18 in 10.0 mi West 8.1 mph - N/A   Clear
3:52 AM 23.0 °F 13.9 °F 21.2 °F 93% 30.18 in 10.0 mi West 8.1 mph - N/A   Clear
4:12 AM 24.8 °F 14.6 °F 23.0 °F 93% 30.18 in 7.0 mi West 10.4 mph - N/A   Mostly Cloudy
4:33 AM 26.6 °F 16.2 °F 26.6 °F 100% 30.19 in 0.5 mi West 11.5 mph - N/A Fog Light Freezing Fog
4:52 AM 26.6 °F 16.8 °F 26.6 °F 100% 30.19 in 0.2 mi West 10.4 mph - N/A Fog Light Freezing Fog
5:12 AM 26.6 °F 19.1 °F 26.6 °F 100% 30.19 in 0.5 mi West 6.9 mph - N/A Fog Light Freezing Fog
5:33 AM 26.6 °F 17.5 °F 26.6 °F 100% 30.20 in 0.2 mi WSW 9.2 mph - N/A Snow Light Snow
5:52 AM 26.6 °F 19.1 °F 26.6 °F 100% 30.20 in 0.2 mi WSW 6.9 mph - N/A Snow Light Snow
6:12 AM 26.6 °F 18.2 °F 26.6 °F 100% 30.20 in 0.2 mi WSW 8.1 mph - N/A Snow Light Snow
6:33 AM 26.6 °F 16.8 °F 24.8 °F 93% 30.21 in 0.5 mi WSW 10.4 mph - N/A Snow Light Snow
6:52 AM 24.8 °F 15.3 °F 24.8 °F 100% 30.22 in 0.5 mi WSW 9.2 mph - N/A Snow Light Snow
7:12 AM 24.8 °F 16.9 °F 24.8 °F 100% 30.23 in 4.0 mi WSW 6.9 mph - N/A   Mostly Cloudy
7:33 AM 24.8 °F 16.9 °F 23.0 °F 93% 30.23 in 10.0 mi WSW 6.9 mph - N/A   Clear
7:52 AM 24.8 °F 16.9 °F 23.0 °F 93% 30.23 in 10.0 mi WSW 6.9 mph - N/A   Clear
8:12 AM 24.8 °F 16.9 °F 23.0 °F 93% 30.24 in 10.0 mi SW 6.9 mph - N/A   Clear
8:33 AM 24.8 °F 15.3 °F 24.8 °F 100% 30.26 in 10.0 mi West 9.2 mph - N/A   Clear
8:52 AM 26.6 °F 16.8 °F 24.8 °F 93% 30.26 in 10.0 mi West 10.4 mph - N/A   Clear
9:12 AM 26.6 °F 17.5 °F 26.6 °F 100% 30.26 in 10.0 mi West 9.2 mph - N/A   Clear
9:33 AM 28.4 °F 18.0 °F 26.6 °F 93% 30.26 in 10.0 mi West 12.7 mph - N/A   Clear
9:52 AM 30.2 °F 20.8 °F 26.6 °F 86% 30.26 in 10.0 mi West 11.5 mph - N/A   Clear
10:12 AM 30.2 °F 19.3 °F 24.8 °F 80% 30.27 in 10.0 mi WNW 15.0 mph - N/A   Clear
10:33 AM 30.2 °F 19.3 °F 26.6 °F 86% 30.27 in 10.0 mi West 15.0 mph - N/A   Clear
10:52 AM 33.8 °F 23.9 °F 26.6 °F 75% 30.28 in 10.0 mi West 15.0 mph - N/A   Clear
11:12 AM 33.8 °F 23.5 °F 26.6 °F 75% 30.28 in 10.0 mi West 16.1 mph - N/A   Clear
11:33 AM 35.6 °F 27.1 °F 26.6 °F 70% 30.28 in 10.0 mi West 12.7 mph - N/A   Clear
11:52 AM 35.6 °F 26.2 °F 26.6 °F 70% 30.27 in 10.0 mi WNW 15.0 mph - N/A   Clear
12:12 PM 35.6 °F 25.9 °F 26.6 °F 70% 30.27 in 10.0 mi West 16.1 mph - N/A   Clear
12:33 PM 35.6 °F 26.6 °F 24.8 °F 65% 30.27 in 10.0 mi West 13.8 mph - N/A   Clear
12:52 PM 35.6 °F 27.5 °F 24.8 °F 65% 30.27 in 10.0 mi West 11.5 mph - N/A   Scattered Clouds
1:13 PM 35.6 °F 27.1 °F 21.2 °F 56% 30.27 in 10.0 mi West 12.7 mph - N/A   Scattered Clouds
1:32 PM 35.6 °F 27.5 °F 24.8 °F 65% 30.26 in 10.0 mi WSW 11.5 mph - N/A   Clear
1:52 PM 35.6 °F 27.1 °F 24.8 °F 65% 30.26 in 10.0 mi WSW 12.7 mph - N/A   Clear
2:13 PM 35.6 °F 27.5 °F 26.6 °F 70% 30.25 in 10.0 mi WSW 11.5 mph - N/A   Clear
2:32 PM 35.6 °F 27.1 °F 24.8 °F 65% 30.25 in 10.0 mi WSW 12.7 mph - N/A   Clear
2:52 PM 37.4 °F 29.3 °F 26.6 °F 65% 30.24 in 10.0 mi SW 12.7 mph - N/A   Clear
3:13 PM 35.6 °F 27.1 °F 26.6 °F 70% 30.24 in 10.0 mi WSW 12.7 mph - N/A   Clear
3:32 PM 35.6 °F 27.5 °F 26.6 °F 70% 30.23 in 10.0 mi WSW 11.5 mph - N/A   Clear
3:52 PM 35.6 °F 27.1 °F 26.6 °F 70% 30.24 in 10.0 mi SW 12.7 mph - N/A   Clear
4:13 PM 35.6 °F 28.6 °F 26.6 °F 70% 30.23 in 10.0 mi SW 9.2 mph - N/A   Clear
4:32 PM 35.6 °F 27.5 °F 26.6 °F 70% 30.22 in 10.0 mi WSW 11.5 mph - N/A   Clear
4:52 PM 33.8 °F 26.4 °F 26.6 °F 75% 30.22 in 10.0 mi SW 9.2 mph - N/A   Clear
5:12 PM 33.8 °F 25.3 °F 26.6 °F 75% 30.22 in 10.0 mi WSW 11.5 mph - N/A   Clear
5:32 PM 33.8 °F 24.3 °F 26.6 °F 75% 30.22 in 10.0 mi SW 13.8 mph - N/A   Clear
5:53 PM 32.0 °F 23.0 °F 24.8 °F 75% 30.22 in 10.0 mi WSW 11.5 mph - N/A   Clear
6:12 PM 32.0 °F 21.6 °F 24.8 °F 75% 30.22 in 10.0 mi SW 15.0 mph 19.6 mph N/A   Clear
6:32 PM 30.2 °F 21.3 °F 26.6 °F 86% 30.22 in 10.0 mi SW 10.4 mph - N/A   Clear
6:53 PM 30.2 °F 21.3 °F 26.6 °F 86% 30.22 in 10.0 mi SW 10.4 mph - N/A   Clear
7:12 PM 30.2 °F 21.3 °F 26.6 °F 86% 30.22 in 10.0 mi SW 10.4 mph - N/A   Clear
7:32 PM 30.2 °F 21.3 °F 26.6 °F 86% 30.22 in 10.0 mi SW 10.4 mph - N/A   Clear
7:53 PM 30.2 °F 20.8 °F 26.6 °F 86% 30.21 in 10.0 mi SW 11.5 mph - N/A   Clear
8:12 PM 30.2 °F 21.9 °F 26.6 °F 86% 30.22 in 10.0 mi WSW 9.2 mph - N/A   Clear
8:32 PM 30.2 °F 21.3 °F 26.6 °F 86% 30.22 in 10.0 mi SW 10.4 mph - N/A   Clear
8:52 PM 30.2 °F 21.3 °F 26.6 °F 86% 30.21 in 10.0 mi WSW 10.4 mph - N/A   Clear
9:12 PM 30.2 °F 21.9 °F 26.6 °F 86% 30.22 in 10.0 mi SW 9.2 mph - N/A   Clear
9:33 PM 30.2 °F 22.6 °F 24.8 °F 80% 30.21 in 10.0 mi SW 8.1 mph - N/A   Clear
9:52 PM 30.2 °F 22.6 °F 24.8 °F 80% 30.21 in 10.0 mi SW 8.1 mph - N/A   Clear
10:12 PM 30.2 °F 22.6 °F 24.8 °F 80% 30.20 in 10.0 mi SW 8.1 mph - N/A   Clear
10:33 PM 30.2 °F 22.6 °F 24.8 °F 80% 30.20 in 10.0 mi SW 8.1 mph - N/A   Clear
10:52 PM 28.4 °F 20.4 °F 24.8 °F 86% 30.19 in 10.0 mi SW 8.1 mph - N/A   Clear
11:12 PM 28.4 °F 23.3 °F 24.8 °F 86% 30.18 in 10.0 mi WSW 4.6 mph - N/A   Clear
11:33 PM 28.4 °F 21.2 °F 24.8 °F 86% 30.18 in 10.0 mi SW 6.9 mph - N/A   Clear
11:52 PM 28.4 °F 22.2 °F 24.8 °F 86% 30.18 in 10.0 mi SW 5.8 mph - N/A   Clear